TimeCST,TemperatureF,Dew PointF,Humidity,Sea Level PressureIn,VisibilityMPH,Wind Direction,Wind SpeedMPH,Gust SpeedMPH,PrecipitationIn,Events,Conditions,WindDirDegrees,DateUTC
12:54 AM,39.0,30.0,70,30.12,10.0,South,3.5,-,N/A,,Clear,170,2011-11-07 06:54:00
1:54 AM,36.0,30.0,79,30.13,10.0,SSE,5.8,-,N/A,,Clear,160,2011-11-07 07:54:00
2:54 AM,36.0,30.0,79,30.14,10.0,SSE,4.6,-,N/A,,Clear,160,2011-11-07 08:54:00
3:54 AM,35.1,28.9,78,30.16,10.0,South,3.5,-,N/A,,Clear,180,2011-11-07 09:54:00
4:54 AM,37.4,30.2,75,30.16,10.0,Calm,Calm,-,N/A,,Clear,0,2011-11-07 10:54:00
5:54 AM,33.8,28.4,81,30.17,10.0,Calm,Calm,-,N/A,,Clear,0,2011-11-07 11:54:00
6:54 AM,35.1,28.9,78,30.21,10.0,Calm,Calm,-,N/A,,Scattered Clouds,0,2011-11-07 12:54:00
7:54 AM,34.0,28.0,79,30.24,9.0,Calm,Calm,-,N/A,,Scattered Clouds,0,2011-11-07 13:54:00
8:54 AM,42.8,33.8,70,30.23,10.0,Calm,Calm,-,N/A,,Partly Cloudy,0,2011-11-07 14:54:00
9:54 AM,50.0,36.0,59,30.23,10.0,Calm,Calm,-,N/A,,Partly Cloudy,0,2011-11-07 15:54:00
10:54 AM,55.9,32.0,40,30.23,10.0,NNE,3.5,-,N/A,,Partly Cloudy,30,2011-11-07 16:54:00
11:54 AM,57.9,28.0,32,30.20,10.0,East,4.6,-,N/A,,Mostly Cloudy,100,2011-11-07 17:54:00
12:54 PM,59.0,32.0,36,30.18,10.0,East,4.6,-,N/A,,Mostly Cloudy,80,2011-11-07 18:54:00
1:54 PM,59.0,27.0,29,30.17,10.0,East,6.9,-,N/A,,Mostly Cloudy,90,2011-11-07 19:54:00
2:54 PM,59.0,27.0,29,30.17,10.0,ENE,3.5,-,N/A,,Overcast,70,2011-11-07 20:54:00
3:54 PM,57.9,30.0,35,30.16,10.0,East,4.6,-,N/A,,Overcast,80,2011-11-07 21:54:00
4:54 PM,55.9,30.9,39,30.17,10.0,NE,3.5,-,N/A,,Overcast,50,2011-11-07 22:54:00
5:54 PM,54.0,34.0,47,30.18,10.0,NNE,10.4,-,0.00,Rain,Light Rain,30,2011-11-07 23:54:00
6:54 PM,53.1,37.9,57,30.18,10.0,ENE,8.1,-,0.02,Rain,Light Rain,70,2011-11-08 00:54:00
7:54 PM,50.0,39.2,66,30.16,10.0,ENE,5.8,-,N/A,Rain,Light Rain,60,2011-11-08 01:54:00
8:54 PM,48.0,39.9,74,30.19,6.0,NE,11.5,-,0.13,Rain,Rain,50,2011-11-08 02:54:00
9:54 PM,46.0,41.0,83,30.16,5.0,NE,8.1,-,0.08,Rain,Rain,40,2011-11-08 03:54:00
10:54 PM,45.0,41.0,86,30.12,8.0,North,9.2,-,0.15,Rain,Light Rain,10,2011-11-08 04:54:00
11:54 PM,45.0,39.9,82,30.09,10.0,NNE,13.8,-,0.00,,Overcast,20,2011-11-08 05:54:00